TIANMU-1 20
Last updated on Mon Jun 22 2026 00:02:46 GMT+0000 (Coordinated Universal Time)
1 58661U 23208B 26172.56804883 .00006296 00000+0 20107-3 0 9996
2 58661 97.4447 289.5303 0005732 315.3365 44.7415 15.32819357138096
Next 0 passes for location: London (51.5072 / 0.1276)
No passes found over London.